GW1125 Weather Reports


time (UTC)temp
C
wind
direction
speed
KPH
gust
KPH
rain 1hr
cm
rain 24hr
cm
rain mn
cm
humidity
%
barometer
mb
20260903041200 12 106 0.0 0.0 0.00 0.56 0.56 98 1006.0
20260903040147 12 106 0.0 0.0 0.00 0.56 0.56 98 1006.2
20260903035128 12 106 0.0 0.0 0.00 0.56 0.56 98 1005.9
20260903034115 12 105 0.0 0.0 0.00 0.56 0.56 98 1005.8
20260903033110 12 106 0.0 0.0 0.00 0.56 0.56 98 1005.5
20260903032036 12 106 0.0 0.0 0.00 0.56 0.56 98 1005.5
20260903031026 12 105 0.0 0.0 0.00 0.56 0.56 98 1005.1
20260903030006 13 107 0.0 0.0 0.00 0.56 0.56 98 1005.1
20260903024955 13 107 0.0 0.0 0.00 0.56 0.56 97 1005.2
20260903023949 13 107 0.0 0.0 0.00 0.56 0.56 97 1005.0
20260903022920 13 108 0.0 0.0 0.00 0.56 0.56 96 1004.9
20260903021910 13 108 0.0 0.0 0.00 0.56 0.56 96 1004.8
20260903020843 13 107 0.0 0.0 0.00 0.56 0.56 95 1004.8
20260903015831 14 111 0.0 0.0 0.00 0.56 0.56 95 1004.7
20260903014802 14 107 0.0 0.0 0.00 0.56 0.56 94 1004.7
20260903013723 14 102 0.0 0.0 0.03 0.56 0.56 93 1004.5
20260903012659 14 110 0.0 0.0 0.13 0.56 0.56 93 1004.3
20260903011644 15 108 0.0 0.0 0.13 0.56 0.56 93 1004.1
20260903010621 14 113 0.0 0.0 0.13 0.56 0.56 96 1004.1
20260903005600 13 108 0.0 0.0 0.13 0.56 0.56 96 1003.9
20260903004557 13 101 1.6 1.6 0.13 0.56 0.56 97 1003.9
20260903003534 14 131 1.6 1.6 0.08 0.51 0.51 98 1004.0
20260903002516 15 104 0.0 0.0 0.00 0.43 0.43 98 1003.7
20260903001512 15 107 0.0 0.0 0.00 0.43 0.43 98 1003.0
20260903000501 15 105 0.0 0.0 0.00 0.43 0.43 98 1002.9
20260902235441 15 109 0.0 0.0 0.03 0.43 0.43 98 1002.9
20260902234432 15 109 0.0 0.0 0.05 0.43 0.43 98 1002.9
20260902233424 15 106 0.0 0.0 0.10 0.43 0.43 98 1003.1
20260902232404 15 106 0.0 0.0 0.13 0.43 0.43 98 1003.0
20260902231325 15 105 0.0 0.0 0.18 0.43 0.43 97 1002.7
20260902230309 14 105 0.0 0.0 0.20 0.43 0.43 97 1002.9
20260902225250 15 106 0.0 0.0 0.23 0.41 0.41 97 1003.3
20260902224220 15 105 0.0 0.0 0.25 0.38 0.38 97 1003.3
20260902223203 15 108 0.0 0.0 0.23 0.33 0.33 96 1003.2
20260902222154 15 106 0.0 0.0 0.18 0.28 0.28 96 1003.1
20260902221139 15 105 0.0 0.0 0.18 0.25 0.25 95 1003.0
20260902220111 15 104 0.0 0.0 0.18 0.23 0.23 94 1003.3
20260902215041 15 102 0.0 0.0 0.15 0.18 0.18 92 1003.2
20260902214012 16 107 0.0 0.0 0.10 0.13 0.13 91 1003.4
20260902213005 16 106 0.0 0.0 0.08 0.10 0.10 91 1003.4
20260902211940 16 109 0.0 0.0 0.08 0.10 0.10 88 1003.3
20260902210911 16 117 1.6 1.6 0.05 0.08 0.08 86 1003.2
20260902205900 16 103 0.0 1.6 0.03 0.05 0.05 84 1003.4
20260902204832 17 110 0.0 1.6 0.00 0.03 0.03 79 1003.3
20260902203757 17 108 0.0 0.0 0.03 0.03 0.03 80 1003.1
20260902202718 18 110 0.0 0.0 0.03 0.03 0.03 77 1003.1
20260902201712 18 102 1.6 3.2 0.03 0.03 0.03 74 1003.0
20260902200706 17 112 1.6 1.6 0.03 0.03 0.03 76 1003.1
20260902195647 18 105 0.0 0.0 0.03 0.03 0.03 79 1003.6
20260902194630 17 109 0.0 0.0 0.03 0.03 0.03 78 1003.4
20260902193625 17 103 0.0 0.0 0.00 0.00 0.00 83 1003.5
20260902192612 17 108 0.0 0.0 0.00 0.00 0.00 80 1003.7
20260902191612 20 151 0.0 1.6 0.00 0.00 0.00 59 1003.5
20260902190603 20 118 0.0 0.0 0.00 0.00 0.00 57 1003.6
20260902185529 20 105 0.0 0.0 0.00 0.00 0.00 62 1003.6
20260902184524 20 110 0.0 0.0 0.00 0.00 0.00 63 1003.6
20260902183506 19 109 0.0 0.0 0.00 0.00 0.00 66 1003.8
20260902182440 18 109 0.0 0.0 0.00 0.00 0.00 70 1003.7
20260902181430 18 108 0.0 0.0 0.00 0.00 0.00 70 1003.9
20260902180406 17 109 0.0 0.0 0.00 0.00 0.00 74 1003.9
20260902175336 17 109 0.0 0.0 0.00 0.00 0.00 75 1004.1
20260902174336 17 109 0.0 0.0 0.00 0.00 0.00 77 1004.2
20260902173320 17 109 0.0 0.0 0.00 0.00 0.00 76 1004.3
20260902172316 17 110 0.0 0.0 0.00 0.00 0.00 75 1004.3
20260902171245 17 110 0.0 0.0 0.00 0.00 0.00 77 1004.6
20260902170235 17 110 0.0 0.0 0.00 0.00 0.00 78 1004.5
20260902165209 17 107 0.0 0.0 0.00 0.00 0.00 79 1004.9
20260902164156 17 107 0.0 0.0 0.00 0.00 0.00 80 1004.7
20260902163122 17 107 0.0 0.0 0.00 0.00 0.00 80 1004.8
20260902162111 17 107 0.0 0.0 0.00 0.00 0.00 76 1004.9
20260902161039 17 108 0.0 0.0 0.00 0.00 0.00 75 1005.0
20260902160024 17 111 0.0 0.0 0.00 0.00 0.00 76 1005.1
20260902155021 17 116 0.0 0.0 0.00 0.00 0.00 79 1005.1
20260902154016 16 107 0.0 0.0 0.00 0.00 0.00 82 1005.2
20260902153001 16 102 0.0 0.0 0.00 0.00 0.00 86 1005.1
20260902151957 15 103 0.0 0.0 0.00 0.00 0.00 93 1005.2
20260902150950 14 102 0.0 0.0 0.00 0.00 0.00 97 1005.4
20260902145908 13 105 0.0 0.0 0.00 0.00 0.00 98 1005.9
20260902144844 13 107 0.0 0.0 0.00 0.00 0.00 98 1006.0
20260902143841 13 107 0.0 0.0 0.00 0.00 0.00 98 1006.1
20260902142831 13 107 0.0 0.0 0.00 0.00 0.00 98 1006.1
20260902141828 12 107 0.0 0.0 0.00 0.00 0.00 98 1006.3
20260902140825 12 107 0.0 0.0 0.00 0.00 0.00 98 1006.2
20260902135825 12 107 0.0 0.0 0.00 0.00 0.00 98 1006.2
20260902134816 12 107 0.0 0.0 0.00 0.00 0.00 98 1006.4
20260902133753 12 116 0.0 0.0 0.00 0.00 0.00 98 1006.2
20260902132726 12 116 0.0 0.0 0.00 0.00 0.00 98 1006.3
20260902131711 12 116 0.0 0.0 0.00 0.00 0.00 98 1006.4
20260902130644 12 116 0.0 0.0 0.00 0.00 0.00 97 1006.3
20260902125642 12 116 0.0 0.0 0.00 0.00 0.00 97 1006.5
20260902124620 12 116 0.0 0.0 0.00 0.00 0.00 97 1006.7
20260902123547 13 116 0.0 0.0 0.00 0.00 0.00 97 1006.8
20260902122511 13 116 0.0 0.0 0.00 0.00 0.00 97 1006.7
20260902121451 13 116 0.0 0.0 0.00 0.00 0.00 97 1006.8
20260902120441 13 116 0.0 0.0 0.00 0.00 0.00 97 1006.9
20260902115440 13 116 0.0 0.0 0.00 0.00 0.00 96 1006.9
20260902114419 13 116 0.0 0.0 0.00 0.00 0.00 96 1006.9
20260902113344 13 117 0.0 0.0 0.00 0.00 0.00 96 1007.0
20260902112313 13 116 0.0 0.0 0.00 0.00 0.00 95 1007.1
20260902111304 13 116 0.0 0.0 0.00 0.00 0.00 95 1007.2
20260902110242 13 116 0.0 0.0 0.00 0.00 0.00 95 1007.3
20260902105240 14 116 0.0 0.0 0.00 0.00 0.00 95 1007.2
20260902104212 13 116 0.0 0.0 0.00 0.00 0.00 95 1007.4
20260902103208 13 117 0.0 0.0 0.00 0.00 0.00 95 1007.5
20260902102149 13 117 0.0 0.0 0.00 0.00 0.00 95 1007.6
20260902101131 13 117 0.0 0.0 0.00 0.00 0.00 95 1007.6
20260902100112 14 117 0.0 0.0 0.00 0.00 0.00 94 1007.6
20260902095110 14 117 0.0 0.0 0.00 0.00 0.00 94 1007.8
20260902094052 14 117 0.0 0.0 0.00 0.00 0.00 93 1007.7
20260902093021 14 116 0.0 0.0 0.00 0.00 0.00 93 1007.5
20260902091944 15 116 0.0 0.0 0.00 0.00 0.00 93 1007.9
20260902090931 15 116 0.0 0.0 0.00 0.00 0.00 93 1007.8
20260902085915 15 117 0.0 0.0 0.00 0.00 0.00 93 1007.8
20260902084847 15 119 0.0 0.0 0.00 0.00 0.00 93 1008.0
20260902083828 15 119 0.0 0.0 0.00 0.00 0.00 93 1008.1
20260902082809 15 119 0.0 0.0 0.00 0.00 0.00 92 1008.3
20260902081759 15 119 0.0 0.0 0.00 0.00 0.00 92 1008.3
20260902080743 15 119 0.0 0.0 0.00 0.00 0.00 92 1008.2
20260902075659 15 119 0.0 0.0 0.00 0.00 0.00 91 1008.4
20260902074636 15 119 0.0 0.0 0.00 0.00 0.00 91 1008.5
20260902073635 15 119 0.0 0.0 0.00 0.00 0.00 90 1008.6
20260902072627 15 119 0.0 0.0 0.00 0.00 0.00 90 1008.6
20260902071616 15 119 0.0 0.0 0.00 0.00 0.00 90 1008.5
20260902070606 15 119 0.0 0.0 0.00 0.00 0.00 90 1008.6
20260902065553 15 119 0.0 0.0 0.00 0.00 0.00 90 1008.8
20260902064532 15 119 0.0 0.0 0.00 0.00 0.00 90 1008.7
20260902063517 15 119 0.0 0.0 0.00 0.00 0.00 90 1008.7
20260902062510 15 119 0.0 0.0 0.00 0.00 0.00 89 1008.7
20260902061504 15 119 0.0 0.0 0.00 0.00 0.00 89 1008.7
20260902060449 15 119 0.0 0.0 0.00 0.00 0.00 89 1008.6
20260902055436 15 119 0.0 0.0 0.00 0.00 0.00 89 1008.8
20260902054419 15 119 0.0 0.0 0.00 0.00 0.00 89 1008.6
20260902053403 15 119 0.0 0.0 0.00 0.00 0.00 89 1009.0
20260902052400 15 119 0.0 0.0 0.00 0.00 0.00 89 1008.9
20260902051350 15 119 0.0 0.0 0.00 0.00 0.00 89 1009.0
20260902050300 16 120 0.0 0.0 0.00 0.00 0.00 89 1008.7
20260902045240 16 120 0.0 0.0 0.00 0.00 0.00 88 1009.0
20260902044221 16 120 0.0 0.0 0.00 0.00 0.00 88 1008.9
20260902043206 16 120 0.0 0.0 0.00 0.00 0.00 87 1009.0
20260902042146 16 116 0.0 0.0 0.00 0.00 0.00 88 1009.0